Time,TemperatureF,DewpointF,PressureIn,WindDirection,WindDirectionDegrees,WindSpeedMPH,WindSpeedGustMPH,Humidity,HourlyPrecipIn,Conditions,Clouds,dailyrainin,SoftwareType,DateUTC
2014-09-17 00:01:00,59.9,46.9,29.88,SSE,159,0.0,0.0,62,0.00,,---,0.00,VWS V15.00,2014-09-17 04:01:00,
2014-09-17 00:06:00,59.7,46.7,29.88,SSE,159,0.0,0.0,62,0.00,,---,0.00,VWS V15.00,2014-09-17 04:06:00,
2014-09-17 00:11:00,59.5,47.0,29.88,SSE,159,0.0,0.0,63,0.00,,---,0.00,VWS V15.00,2014-09-17 04:11:00,
2014-09-17 00:16:00,59.5,47.0,29.88,SSE,159,0.0,0.0,63,0.00,,---,0.00,VWS V15.00,2014-09-17 04:16:00,
2014-09-17 00:21:00,59.2,46.6,29.88,SSE,159,0.0,0.0,63,0.00,,---,0.00,VWS V15.00,2014-09-17 04:21:00,
2014-09-17 00:26:00,59.2,47.0,29.88,SSE,159,0.0,0.0,64,0.00,,---,0.00,VWS V15.00,2014-09-17 04:26:00,
2014-09-17 00:31:00,59.2,47.0,29.88,SSE,159,0.0,0.0,64,0.00,,---,0.00,VWS V15.00,2014-09-17 04:31:00,
2014-09-17 00:36:00,59.2,47.0,29.88,SSE,159,0.0,0.0,64,0.00,,---,0.00,VWS V15.00,2014-09-17 04:36:00,
2014-09-17 00:41:00,59.2,47.0,29.88,SSE,159,0.0,0.0,64,0.00,,---,0.00,VWS V15.00,2014-09-17 04:41:00,
2014-09-17 00:46:00,59.0,46.4,29.88,SSE,159,0.0,0.0,63,0.00,,---,0.00,VWS V15.00,2014-09-17 04:46:00,
2014-09-17 00:51:00,58.8,46.7,29.88,SSE,159,0.0,0.0,64,0.00,,---,0.00,VWS V15.00,2014-09-17 04:51:00,
2014-09-17 00:56:00,58.8,46.7,29.88,SSE,159,0.0,0.0,64,0.00,,---,0.00,VWS V15.00,2014-09-17 04:56:00,
2014-09-17 01:01:00,58.8,46.7,29.88,SSE,159,0.0,0.0,64,0.00,,---,0.00,VWS V15.00,2014-09-17 05:01:00,
2014-09-17 01:06:00,59.0,46.8,29.88,SSE,159,0.0,0.0,64,0.00,,---,0.00,VWS V15.00,2014-09-17 05:06:00,
2014-09-17 01:11:00,59.0,46.8,29.88,SSE,159,0.0,0.0,64,0.00,,---,0.00,VWS V15.00,2014-09-17 05:11:00,
2014-09-17 01:16:00,59.0,46.8,29.88,SSE,159,0.0,0.0,64,0.00,,---,0.00,VWS V15.00,2014-09-17 05:16:00,
2014-09-17 01:21:00,58.8,46.7,29.88,SSE,159,0.0,0.0,64,0.00,,---,0.00,VWS V15.00,2014-09-17 05:21:00,
2014-09-17 01:26:00,58.6,46.5,29.88,SSE,159,0.0,0.0,64,0.00,,---,0.00,VWS V15.00,2014-09-17 05:26:00,
2014-09-17 01:31:00,58.6,46.9,29.88,SSE,159,0.0,0.0,65,0.00,,---,0.00,VWS V15.00,2014-09-17 05:31:00,
2014-09-17 01:36:00,58.5,46.8,29.88,SSE,159,0.0,0.0,65,0.00,,---,0.00,VWS V15.00,2014-09-17 05:36:00,
2014-09-17 01:41:00,58.6,46.9,29.88,SSE,159,0.0,0.0,65,0.00,,---,0.00,VWS V15.00,2014-09-17 05:41:00,
2014-09-17 01:46:00,58.5,46.3,29.88,SSE,159,0.0,0.0,64,0.00,,---,0.00,VWS V15.00,2014-09-17 05:46:00,
2014-09-17 01:51:00,58.1,46.0,29.88,SSE,159,0.0,0.0,64,0.00,,---,0.00,VWS V15.00,2014-09-17 05:51:00,
2014-09-17 01:56:00,57.9,45.8,29.88,SSE,159,0.0,0.0,64,0.00,,---,0.00,VWS V15.00,2014-09-17 05:56:00,
2014-09-17 02:01:00,57.9,46.2,29.88,SSE,159,0.0,0.0,65,0.00,,---,0.00,VWS V15.00,2014-09-17 06:01:00,
2014-09-17 02:06:00,57.7,45.7,29.88,SSE,159,0.0,0.0,64,0.00,,---,0.00,VWS V15.00,2014-09-17 06:06:00,
2014-09-17 02:11:00,57.7,45.7,29.88,SSE,159,0.0,0.0,64,0.00,,---,0.00,VWS V15.00,2014-09-17 06:11:00,
2014-09-17 02:16:00,57.7,46.1,29.88,SSE,159,0.0,0.0,65,0.00,,---,0.00,VWS V15.00,2014-09-17 06:16:00,
2014-09-17 02:21:00,57.6,45.5,29.88,SSE,159,0.0,0.0,64,0.00,,---,0.00,VWS V15.00,2014-09-17 06:21:00,
2014-09-17 02:26:00,57.4,44.9,29.88,SSE,159,0.0,0.0,63,0.00,,---,0.00,VWS V15.00,2014-09-17 06:26:00,
2014-09-17 02:31:00,57.2,45.2,29.88,SSE,159,0.0,0.0,64,0.00,,---,0.00,VWS V15.00,2014-09-17 06:31:00,
2014-09-17 02:36:00,57.2,45.2,29.88,SSE,159,0.0,0.0,64,0.00,,---,0.00,VWS V15.00,2014-09-17 06:36:00,
2014-09-17 02:38:00,57.2,45.2,29.88,SSE,159,0.0,0.0,64,0.00,,---,0.00,VWS V15.00,2014-09-17 06:38:00,
2014-09-17 02:44:00,57.2,45.2,29.88,SSE,159,0.0,0.0,64,0.00,,---,0.00,VWS V15.00,2014-09-17 06:44:00,
2014-09-17 02:48:00,57.2,45.2,29.88,SSE,159,0.0,0.0,64,0.00,,---,0.00,VWS V15.00,2014-09-17 06:48:00,
2014-09-17 02:54:00,57.2,45.2,29.88,SSE,159,0.0,0.0,64,0.00,,---,0.00,VWS V15.00,2014-09-17 06:54:00,
2014-09-17 02:59:00,57.0,45.0,29.88,SSE,159,0.0,0.0,64,0.00,,---,0.00,VWS V15.00,2014-09-17 06:59:00,
2014-09-17 03:01:00,57.0,45.0,29.88,SSE,159,0.0,0.0,64,0.00,,---,0.00,VWS V15.00,2014-09-17 07:01:00,
2014-09-17 03:06:00,56.7,44.2,29.88,SSE,159,0.0,0.0,63,0.00,,---,0.00,VWS V15.00,2014-09-17 07:06:00,
2014-09-17 03:08:00,56.7,44.2,29.88,SSE,159,0.0,0.0,63,0.00,,---,0.00,VWS V15.00,2014-09-17 07:08:00,
2014-09-17 03:13:00,56.5,44.0,29.88,SSE,159,0.0,0.0,63,0.00,,---,0.00,VWS V15.00,2014-09-17 07:13:00,
2014-09-17 03:18:00,56.3,44.3,29.85,SSE,159,0.0,0.0,64,0.00,,---,0.00,VWS V15.00,2014-09-17 07:18:00,
2014-09-17 03:23:00,56.3,43.9,29.85,SSE,159,0.0,0.0,63,0.00,,---,0.00,VWS V15.00,2014-09-17 07:23:00,
2014-09-17 03:28:00,55.9,43.5,29.85,SSE,159,0.0,0.0,63,0.00,,---,0.00,VWS V15.00,2014-09-17 07:28:00,
2014-09-17 03:33:00,55.9,44.0,29.85,SSE,159,0.0,0.0,64,0.00,,---,0.00,VWS V15.00,2014-09-17 07:33:00,
2014-09-17 03:38:00,55.9,44.0,29.85,SSE,159,0.0,0.0,64,0.00,,---,0.00,VWS V15.00,2014-09-17 07:38:00,
2014-09-17 03:43:00,55.8,43.8,29.85,SSE,159,0.0,0.0,64,0.00,,---,0.00,VWS V15.00,2014-09-17 07:43:00,
2014-09-17 03:48:00,55.6,43.6,29.85,SSE,159,0.0,0.0,64,0.00,,---,0.00,VWS V15.00,2014-09-17 07:48:00,
2014-09-17 03:53:00,55.4,43.4,29.85,SSE,159,0.0,0.0,64,0.00,,---,0.00,VWS V15.00,2014-09-17 07:53:00,
2014-09-17 03:58:00,55.2,43.7,29.85,SSE,159,0.0,0.0,65,0.00,,---,0.00,VWS V15.00,2014-09-17 07:58:00,
2014-09-17 04:03:00,55.2,44.1,29.85,SSE,159,0.0,0.0,66,0.00,,---,0.00,VWS V15.00,2014-09-17 08:03:00,
2014-09-17 04:08:00,55.4,43.8,29.85,SSE,159,0.0,0.0,65,0.00,,---,0.00,VWS V15.00,2014-09-17 08:08:00,
2014-09-17 04:13:00,55.2,44.1,29.85,SSE,159,0.0,0.0,66,0.00,,---,0.00,VWS V15.00,2014-09-17 08:13:00,
2014-09-17 04:18:00,55.2,44.1,29.85,SSE,159,0.0,0.0,66,0.00,,---,0.00,VWS V15.00,2014-09-17 08:18:00,
2014-09-17 04:23:00,55.4,43.8,29.85,SSE,159,0.0,0.0,65,0.00,,---,0.00,VWS V15.00,2014-09-17 08:23:00,
2014-09-17 04:28:00,55.4,43.8,29.85,SSE,159,0.0,0.0,65,0.00,,---,0.00,VWS V15.00,2014-09-17 08:28:00,
2014-09-17 04:33:00,55.4,43.8,29.85,SSE,159,0.0,0.0,65,0.00,,---,0.00,VWS V15.00,2014-09-17 08:33:00,
2014-09-17 04:38:00,55.2,44.1,29.85,SSE,159,0.0,0.0,66,0.00,,---,0.00,VWS V15.00,2014-09-17 08:38:00,
2014-09-17 04:43:00,55.0,43.9,29.85,SSE,159,0.0,0.0,66,0.00,,---,0.00,VWS V15.00,2014-09-17 08:43:00,
2014-09-17 04:48:00,55.0,43.9,29.85,SSE,159,0.0,0.0,66,0.00,,---,0.00,VWS V15.00,2014-09-17 08:48:00,
2014-09-17 04:53:00,55.0,43.9,29.85,SSE,159,0.0,0.0,66,0.00,,---,0.00,VWS V15.00,2014-09-17 08:53:00,
2014-09-17 04:58:00,55.0,43.9,29.85,SSE,159,0.0,0.0,66,0.00,,---,0.00,VWS V15.00,2014-09-17 08:58:00,
2014-09-17 05:03:00,55.0,43.9,29.88,SSE,159,0.0,0.0,66,0.00,,---,0.00,VWS V15.00,2014-09-17 09:03:00,
2014-09-17 05:08:00,55.0,43.9,29.88,SSE,159,0.0,0.0,66,0.00,,---,0.00,VWS V15.00,2014-09-17 09:08:00,
2014-09-17 05:13:00,54.9,43.7,29.88,SSE,159,0.0,0.0,66,0.00,,---,0.00,VWS V15.00,2014-09-17 09:13:00,
2014-09-17 05:18:00,54.9,43.7,29.88,SSE,159,0.0,0.0,66,0.00,,---,0.00,VWS V15.00,2014-09-17 09:18:00,
2014-09-17 05:23:00,54.9,43.7,29.88,SSE,159,0.0,0.0,66,0.00,,---,0.00,VWS V15.00,2014-09-17 09:23:00,
2014-09-17 05:28:00,54.9,43.7,29.88,SSE,159,0.0,0.0,66,0.00,,---,0.00,VWS V15.00,2014-09-17 09:28:00,
2014-09-17 05:33:00,54.7,43.6,29.88,SSE,159,0.0,0.0,66,0.00,,---,0.00,VWS V15.00,2014-09-17 09:33:00,
2014-09-17 05:38:00,54.7,43.6,29.88,SSE,159,0.0,0.0,66,0.00,,---,0.00,VWS V15.00,2014-09-17 09:38:00,
2014-09-17 05:43:00,54.7,44.0,29.88,SSE,159,0.0,0.0,67,0.00,,---,0.00,VWS V15.00,2014-09-17 09:43:00,
2014-09-17 05:48:00,54.7,44.0,29.88,SSE,159,0.0,0.0,67,0.00,,---,0.00,VWS V15.00,2014-09-17 09:48:00,
2014-09-17 05:53:00,54.7,44.0,29.88,SSE,159,0.0,0.0,67,0.00,,---,0.00,VWS V15.00,2014-09-17 09:53:00,
2014-09-17 05:56:00,54.7,44.0,29.88,SSE,159,0.0,0.0,67,0.00,,---,0.00,VWS V15.00,2014-09-17 09:56:00,
2014-09-17 06:01:00,54.5,43.8,29.88,SSE,159,0.0,0.0,67,0.00,,---,0.00,VWS V15.00,2014-09-17 10:01:00,
2014-09-17 06:06:00,54.5,43.8,29.88,SSE,159,0.0,0.0,67,0.00,,---,0.00,VWS V15.00,2014-09-17 10:06:00,
2014-09-17 06:11:00,54.5,43.8,29.88,SSE,159,0.0,0.0,67,0.00,,---,0.00,VWS V15.00,2014-09-17 10:11:00,
2014-09-17 06:16:00,54.5,43.8,29.88,SSE,159,0.0,0.0,67,0.00,,---,0.00,VWS V15.00,2014-09-17 10:16:00,
2014-09-17 06:21:00,54.5,43.8,29.88,SSE,159,0.0,0.0,67,0.00,,---,0.00,VWS V15.00,2014-09-17 10:21:00,
2014-09-17 06:26:00,54.5,44.2,29.88,SSE,159,0.0,0.0,68,0.00,,---,0.00,VWS V15.00,2014-09-17 10:26:00,
2014-09-17 06:31:00,54.5,44.2,29.88,SSE,159,0.0,0.0,68,0.00,,---,0.00,VWS V15.00,2014-09-17 10:31:00,
2014-09-17 06:36:00,54.5,44.2,29.88,SSE,159,0.0,0.0,68,0.00,,---,0.00,VWS V15.00,2014-09-17 10:36:00,
2014-09-17 06:41:00,54.5,44.2,29.88,SSE,159,0.0,0.0,68,0.00,,---,0.00,VWS V15.00,2014-09-17 10:41:00,
2014-09-17 06:46:00,54.5,44.2,29.88,SSE,159,0.0,0.0,68,0.00,,---,0.00,VWS V15.00,2014-09-17 10:46:00,
2014-09-17 06:51:00,54.5,44.2,29.88,SSE,159,0.0,0.0,68,0.00,,---,0.00,VWS V15.00,2014-09-17 10:51:00,
2014-09-17 06:55:00,54.5,44.2,29.88,SSE,159,0.0,0.0,68,0.00,,---,0.00,VWS V15.00,2014-09-17 10:55:00,
2014-09-17 07:00:00,54.7,44.3,29.88,SSE,159,0.0,0.0,68,0.00,,---,0.00,VWS V15.00,2014-09-17 11:00:00,
2014-09-17 07:05:00,54.7,44.3,29.88,SSE,159,0.0,0.0,68,0.00,,---,0.00,VWS V15.00,2014-09-17 11:05:00,
2014-09-17 07:10:00,54.7,44.3,29.88,SSE,159,0.0,0.0,68,0.00,,---,0.00,VWS V15.00,2014-09-17 11:10:00,
2014-09-17 07:15:00,54.7,44.3,29.88,SSE,159,0.0,0.0,68,0.00,,---,0.00,VWS V15.00,2014-09-17 11:15:00,
2014-09-17 07:20:00,54.7,44.7,29.88,SSE,159,0.0,0.0,69,0.00,,---,0.00,VWS V15.00,2014-09-17 11:20:00,
2014-09-17 07:25:00,54.9,44.9,29.88,SSE,159,0.0,0.0,69,0.00,,---,0.00,VWS V15.00,2014-09-17 11:25:00,
2014-09-17 07:30:00,55.0,45.1,29.88,SSE,159,0.0,0.0,69,0.00,,---,0.00,VWS V15.00,2014-09-17 11:30:00,
2014-09-17 07:35:00,55.0,45.1,29.88,SSE,159,0.0,0.0,69,0.00,,---,0.00,VWS V15.00,2014-09-17 11:35:00,
2014-09-17 07:40:00,55.2,45.2,29.88,SSE,159,0.0,0.0,69,0.00,,---,0.00,VWS V15.00,2014-09-17 11:40:00,
2014-09-17 07:45:00,55.4,45.4,29.88,SSE,159,0.0,0.0,69,0.00,,---,0.00,VWS V15.00,2014-09-17 11:45:00,
2014-09-17 07:50:00,55.8,45.8,29.88,SSE,159,0.0,0.0,69,0.00,,---,0.00,VWS V15.00,2014-09-17 11:50:00,
2014-09-17 07:55:00,55.9,45.9,29.88,SSE,159,0.0,0.0,69,0.00,,---,0.00,VWS V15.00,2014-09-17 11:55:00,
2014-09-17 08:00:00,56.1,45.7,29.88,SSE,159,0.0,0.0,68,0.00,,---,0.00,VWS V15.00,2014-09-17 12:00:00,
2014-09-17 08:05:00,56.3,45.9,29.88,SSE,159,0.0,0.0,68,0.00,,---,0.00,VWS V15.00,2014-09-17 12:05:00,
2014-09-17 08:10:00,56.7,46.2,29.88,SSE,159,0.0,0.0,68,0.00,,---,0.00,VWS V15.00,2014-09-17 12:10:00,
2014-09-17 08:15:00,56.7,46.2,29.88,SSE,159,0.0,0.0,68,0.00,,---,0.00,VWS V15.00,2014-09-17 12:15:00,
2014-09-17 08:20:00,57.2,46.8,29.88,SSE,159,0.0,0.0,68,0.00,,---,0.00,VWS V15.00,2014-09-17 12:20:00,
2014-09-17 08:25:00,57.6,47.1,29.88,SSE,159,0.0,0.0,68,0.00,,---,0.00,VWS V15.00,2014-09-17 12:25:00,
2014-09-17 08:30:00,57.9,47.0,29.88,SSE,159,0.0,0.0,67,0.00,,---,0.00,VWS V15.00,2014-09-17 12:30:00,
2014-09-17 08:35:00,58.1,47.2,29.91,SSE,159,0.0,0.0,67,0.00,,---,0.00,VWS V15.00,2014-09-17 12:35:00,
2014-09-17 08:40:00,58.5,47.2,29.91,SSE,159,0.0,0.0,66,0.00,,---,0.00,VWS V15.00,2014-09-17 12:40:00,
2014-09-17 08:45:00,58.8,47.1,29.91,SSE,159,0.0,0.0,65,0.00,,---,0.00,VWS V15.00,2014-09-17 12:45:00,
2014-09-17 08:50:00,58.8,45.4,29.91,ESE,123,0.0,0.0,61,0.00,,---,0.00,VWS V15.00,2014-09-17 12:50:00,
2014-09-17 08:55:00,59.5,44.8,29.91,ESE,123,0.0,0.0,58,0.00,,---,0.00,VWS V15.00,2014-09-17 12:55:00,
2014-09-17 09:00:00,60.1,45.3,29.91,ESE,123,0.0,0.0,58,0.00,,---,0.00,VWS V15.00,2014-09-17 13:00:00,
2014-09-17 09:05:00,60.3,44.0,29.91,ESE,123,0.0,0.0,55,0.00,,---,0.00,VWS V15.00,2014-09-17 13:05:00,
2014-09-17 09:10:00,60.8,43.1,29.91,SE,138,0.0,0.0,52,0.00,,---,0.00,VWS V15.00,2014-09-17 13:10:00,
2014-09-17 09:15:00,61.2,43.4,29.91,SE,138,0.0,0.0,52,0.00,,---,0.00,VWS V15.00,2014-09-17 13:15:00,
2014-09-17 09:20:00,61.7,43.9,29.91,SE,138,0.0,0.0,52,0.00,,---,0.00,VWS V15.00,2014-09-17 13:20:00,
2014-09-17 09:25:00,62.1,43.2,29.91,SSE,147,0.0,0.0,50,0.00,,---,0.00,VWS V15.00,2014-09-17 13:25:00,
2014-09-17 09:30:00,62.6,39.2,29.91,SE,146,0.0,0.0,42,0.00,,---,0.00,VWS V15.00,2014-09-17 13:30:00,
2014-09-17 09:35:00,63.3,39.9,29.91,SE,146,0.0,0.0,42,0.00,,---,0.00,VWS V15.00,2014-09-17 13:35:00,
2014-09-17 09:40:00,63.9,41.5,29.91,SE,146,0.0,0.0,44,0.00,,---,0.00,VWS V15.00,2014-09-17 13:40:00,
2014-09-17 09:45:00,64.2,42.5,29.91,SE,146,0.0,0.0,45,0.00,,---,0.00,VWS V15.00,2014-09-17 13:45:00,
2014-09-17 09:49:00,64.4,40.2,29.91,SE,146,0.0,0.0,41,0.00,,---,0.00,VWS V15.00,2014-09-17 13:49:00,
2014-09-17 09:54:00,64.8,35.8,29.91,SE,146,0.0,0.0,34,0.00,,---,0.00,VWS V15.00,2014-09-17 13:54:00,
2014-09-17 09:59:00,65.1,36.1,29.91,SE,146,0.0,0.0,34,0.00,,---,0.00,VWS V15.00,2014-09-17 13:59:00,
2014-09-17 10:04:00,65.8,36.7,29.91,SSE,165,0.0,0.0,34,0.00,,---,0.00,VWS V15.00,2014-09-17 14:04:00,
2014-09-17 10:09:00,66.0,32.9,29.91,SSE,165,0.0,0.0,29,0.00,,---,0.00,VWS V15.00,2014-09-17 14:09:00,
2014-09-17 10:14:00,66.6,32.5,29.91,SSW,213,0.0,0.0,28,0.00,,---,0.00,VWS V15.00,2014-09-17 14:14:00,
2014-09-17 10:19:00,66.9,32.8,29.88,SSW,213,0.0,0.0,28,0.00,,---,0.00,VWS V15.00,2014-09-17 14:19:00,
2014-09-17 10:24:00,67.1,32.9,29.88,SSW,213,0.0,0.0,28,0.00,,---,0.00,VWS V15.00,2014-09-17 14:24:00,
2014-09-17 10:29:00,67.5,33.2,29.88,SW,235,0.0,0.0,28,0.00,,---,0.00,VWS V15.00,2014-09-17 14:29:00,
2014-09-17 10:34:00,67.8,33.5,29.88,SE,143,0.0,0.0,28,0.00,,---,0.00,VWS V15.00,2014-09-17 14:34:00,
2014-09-17 10:39:00,68.4,34.0,29.88,SE,143,0.0,0.0,28,0.00,,---,0.00,VWS V15.00,2014-09-17 14:39:00,
2014-09-17 10:44:00,68.5,32.3,29.88,WSW,237,0.0,0.0,26,0.00,,---,0.00,VWS V15.00,2014-09-17 14:44:00,
2014-09-17 10:49:00,68.9,32.6,29.88,SSE,150,0.0,0.0,26,0.00,,---,0.00,VWS V15.00,2014-09-17 14:49:00,
2014-09-17 10:54:00,69.1,32.8,29.88,SSE,150,0.0,0.0,26,0.00,,---,0.00,VWS V15.00,2014-09-17 14:54:00,
2014-09-17 10:59:00,69.4,33.1,29.88,SSE,150,0.0,0.0,26,0.00,,---,0.00,VWS V15.00,2014-09-17 14:59:00,
2014-09-17 11:04:00,69.4,33.1,29.88,SSE,150,0.0,0.0,26,0.00,,---,0.00,VWS V15.00,2014-09-17 15:04:00,
2014-09-17 11:09:00,69.8,32.4,29.88,SSW,199,0.0,0.0,25,0.00,,---,0.00,VWS V15.00,2014-09-17 15:09:00,
2014-09-17 11:14:00,70.2,32.7,29.88,SE,140,0.0,0.0,25,0.00,,---,0.00,VWS V15.00,2014-09-17 15:14:00,
2014-09-17 11:19:00,70.7,33.2,29.88,South,186,0.0,0.0,25,0.00,,---,0.00,VWS V15.00,2014-09-17 15:19:00,
2014-09-17 11:23:00,70.9,33.3,29.88,SSE,167,0.0,0.0,25,0.00,,---,0.00,VWS V15.00,2014-09-17 15:23:00,
2014-09-17 11:28:00,71.1,33.5,29.88,SW,229,0.0,0.0,25,0.00,,---,0.00,VWS V15.00,2014-09-17 15:28:00,
2014-09-17 11:33:00,71.2,33.6,29.88,SSE,158,0.0,0.0,25,0.00,,---,0.00,VWS V15.00,2014-09-17 15:33:00,
2014-09-17 11:38:00,71.4,33.8,29.88,SSE,158,0.0,0.0,25,0.00,,---,0.00,VWS V15.00,2014-09-17 15:38:00,
2014-09-17 11:43:00,72.0,34.2,29.88,SSE,153,0.0,0.0,25,0.00,,---,0.00,VWS V15.00,2014-09-17 15:43:00,
2014-09-17 11:48:00,72.0,34.2,29.88,SW,236,0.0,0.0,25,0.00,,---,0.00,VWS V15.00,2014-09-17 15:48:00,
2014-09-17 11:53:00,72.1,34.4,29.88,SW,236,0.0,0.0,25,0.00,,---,0.00,VWS V15.00,2014-09-17 15:53:00,
2014-09-17 11:58:00,72.3,34.6,29.88,SE,130,0.0,0.0,25,0.00,,---,0.00,VWS V15.00,2014-09-17 15:58:00,
2014-09-17 12:03:00,72.7,34.9,29.88,SE,130,0.0,0.0,25,0.00,,---,0.00,VWS V15.00,2014-09-17 16:03:00,
2014-09-17 12:08:00,72.7,34.9,29.88,ESE,116,0.0,0.0,25,0.00,,---,0.00,VWS V15.00,2014-09-17 16:08:00,
2014-09-17 12:13:00,73.0,35.2,29.88,South,173,0.0,0.0,25,0.00,,---,0.00,VWS V15.00,2014-09-17 16:13:00,
2014-09-17 12:18:00,73.8,34.8,29.88,SW,221,0.0,0.0,24,0.00,,---,0.00,VWS V15.00,2014-09-17 16:18:00,
2014-09-17 12:23:00,73.9,34.9,29.88,SE,132,0.0,0.0,24,0.00,,---,0.00,VWS V15.00,2014-09-17 16:23:00,
2014-09-17 12:28:00,73.4,34.5,29.88,ENE,76,0.0,0.0,24,0.00,,---,0.00,VWS V15.00,2014-09-17 16:28:00,
2014-09-17 12:33:00,72.5,34.7,29.88,ENE,77,0.0,0.0,25,0.00,,---,0.00,VWS V15.00,2014-09-17 16:33:00,
2014-09-17 12:38:00,71.8,34.1,29.88,ENE,77,0.0,0.0,25,0.00,,---,0.00,VWS V15.00,2014-09-17 16:38:00,
2014-09-17 12:43:00,71.6,34.0,29.88,ENE,77,0.0,0.0,25,0.00,,---,0.00,VWS V15.00,2014-09-17 16:43:00,
2014-09-17 12:48:00,72.5,34.7,29.85,South,190,0.0,0.0,25,0.00,,---,0.00,VWS V15.00,2014-09-17 16:48:00,
2014-09-17 12:53:00,73.4,34.5,29.85,SW,230,0.0,0.0,24,0.00,,---,0.00,VWS V15.00,2014-09-17 16:53:00,
2014-09-17 12:58:00,74.3,35.2,29.85,SW,225,0.0,0.0,24,0.00,,---,0.00,VWS V15.00,2014-09-17 16:58:00,
2014-09-17 13:03:00,73.8,34.8,29.85,ESE,116,0.0,0.0,24,0.00,,---,0.00,VWS V15.00,2014-09-17 17:03:00,
2014-09-17 13:08:00,72.9,35.0,29.85,ESE,116,0.0,0.0,25,0.00,,---,0.00,VWS V15.00,2014-09-17 17:08:00,
2014-09-17 13:13:00,72.1,34.4,29.85,ESE,116,0.0,0.0,25,0.00,,---,0.00,VWS V15.00,2014-09-17 17:13:00,
2014-09-17 13:18:00,71.8,34.1,29.85,ESE,116,0.0,0.0,25,0.00,,---,0.00,VWS V15.00,2014-09-17 17:18:00,
2014-09-17 13:23:00,71.8,34.1,29.85,ESE,116,0.0,0.0,25,0.00,,---,0.00,VWS V15.00,2014-09-17 17:23:00,
2014-09-17 13:28:00,72.3,34.6,29.85,ESE,116,0.0,0.0,25,0.00,,---,0.00,VWS V15.00,2014-09-17 17:28:00,
2014-09-17 13:33:00,73.2,35.3,29.85,ESE,116,0.0,0.0,25,0.00,,---,0.00,VWS V15.00,2014-09-17 17:33:00,
2014-09-17 13:38:00,73.9,34.9,29.85,ESE,116,0.0,0.0,24,0.00,,---,0.00,VWS V15.00,2014-09-17 17:38:00,
2014-09-17 13:43:00,74.8,35.7,29.85,ESE,116,0.0,0.0,24,0.00,,---,0.00,VWS V15.00,2014-09-17 17:43:00,
2014-09-17 13:48:00,75.0,35.8,29.85,SSW,208,0.0,0.0,24,0.00,,---,0.00,VWS V15.00,2014-09-17 17:48:00,
2014-09-17 13:53:00,75.7,36.4,29.85,SSW,208,0.0,0.0,24,0.00,,---,0.00,VWS V15.00,2014-09-17 17:53:00,
2014-09-17 13:58:00,74.8,35.7,29.85,SSW,208,0.0,0.0,24,0.00,,---,0.00,VWS V15.00,2014-09-17 17:58:00,
2014-09-17 14:03:00,74.7,35.5,29.85,SSW,208,0.0,0.0,24,0.00,,---,0.00,VWS V15.00,2014-09-17 18:03:00,
2014-09-17 14:08:00,74.5,35.4,29.85,SE,136,0.0,0.0,24,0.00,,---,0.00,VWS V15.00,2014-09-17 18:08:00,
2014-09-17 14:09:00,74.3,35.2,29.85,SE,136,0.0,0.0,24,0.00,,---,0.00,VWS V15.00,2014-09-17 18:09:00,
2014-09-17 14:14:00,74.1,35.1,29.85,SE,136,0.0,0.0,24,0.00,,---,0.00,VWS V15.00,2014-09-17 18:14:00,
2014-09-17 14:19:00,74.5,35.4,29.83,SE,136,0.0,0.0,24,0.00,,---,0.00,VWS V15.00,2014-09-17 18:19:00,
2014-09-17 14:24:00,74.5,35.4,29.83,SE,136,0.0,0.0,24,0.00,,---,0.00,VWS V15.00,2014-09-17 18:24:00,
2014-09-17 14:29:00,74.5,35.4,29.83,SE,136,0.0,0.0,24,0.00,,---,0.00,VWS V15.00,2014-09-17 18:29:00,
2014-09-17 14:34:00,75.0,35.8,29.83,SE,136,0.0,0.0,24,0.00,,---,0.00,VWS V15.00,2014-09-17 18:34:00,